Regional Weather Roundup
Issued by NWS

Home | Current Version | Previous Version | Graphics & Text | Print | Product List | Glossary On
Versions: 1 2 3 4 5 6 7 8 9 10 11 12 13 14 15 16 17 18 19 20 21 22 23 24 25 26 27 28 29 30 31 32 33 34 35 36 37 38 39 40 41 42 43 44 45 46 47 48 49 50
000
ASUS44 KMEG 301910
RWRTN
TENNESSEE HOURLY STATE WEATHER ROUNDUP
NATIONAL WEATHER SERVICE MEMPHIS TN
200 PM CDT SAT APR 30 2016

TNZ002-004-019-021-049-052-054-088>092-302000-
WEST TENNESSEE

CITY           SKY/WX    TMP DP  RH WIND       PRES   REMARKS
MEMPHIS INTL   CLOUDY    73  61  65 S3        29.79F
NWS MEMPHIS      N/A     71 N/A N/A MISG        N/A
JACKSON        CLOUDY    68  61  78 S10       29.84R
DYERSBURG      CLOUDY    72  61  68 SW3         N/A
UNION CITY     MOSUNNY   73  66  78 S7        29.84R
LEXINGTON      MOSUNNY   68  64  88 S10       29.88S
$$

TNZ008-025-027-028-033-062-065-066-302000-
NORTH MIDDLE TENNESSEE

CITY           SKY/WX    TMP DP  RH WIND       PRES   REMARKS
NASHVILLE      CLOUDY    75  63  66 VRB7      29.91F
CLARKSVILLE    CLOUDY    70  65  84 S7        29.85F
SMYRNA         CLOUDY    76  64  66 S6        29.92F
COOKEVILLE     MOSUNNY   72  63  73 CALM      29.93F
CROSSVILLE     PTSUNNY   73  58  59 SE5       29.98F
$$

TNZ061-075-076-078-094-096-097-302000-
SOUTH MIDDLE TENNESSEE

CITY           SKY/WX    TMP DP  RH WIND       PRES   REMARKS
FAYETTEVILLE   SUNNY     75  64  69 W3        29.92F
TULLAHOMA      MOSUNNY   77  63  61 SW8       29.93F
WINCHESTER     MOSUNNY   81  61  50 S8        29.92S
MCMINNVILLE    SUNNY     75  64  69 VRB3      29.93S
COLUMBIA       MOSUNNY   75  75 100 SW10      29.89F
SHELBYVILLE    MOSUNNY   79  64  61 SW7       29.93F
$$

TNZ017-018-042-046-047-302000-
NORTHEAST TENNESSEE

CITY           SKY/WX    TMP DP  RH WIND       PRES   REMARKS
TRI CITIES     PTSUNNY   80  59  48 NE6       29.98F
$$

TNZ012-013-036-069-073-074-302000-
CENTRAL EAST TENNESSEE

CITY           SKY/WX    TMP DP  RH WIND       PRES   REMARKS
KNOXVILLE      TSTM      65  60  84 NE10      29.98S
OAK RIDGE      LGT RAIN  64  61  90 E3        30.01F FOG
GATLINBURG     CLOUDY    72  57  60 NW17      29.99R
MORRISTOWN     CLOUDY    70  57  64 N16       29.99R
$$

TNZ083-085-099-302000-
SOUTHEAST TENNESSEE

CITY           SKY/WX    TMP DP  RH WIND       PRES   REMARKS
CHATTANOOGA    PTSUNNY   81  63  54 SE5       29.92F
$$

SKY/WX REPORTED AS FAIR MEANS FEW OR NO CLOUDS BELOW
12 THOUSAND FEET.





USA.gov is the U.S. government's official web portal to all federal, state and local government web resources and services.